Location: Elmsmere
(40.9284°N, 73.8207°W)
Time: 17:18:38
(UTC+00:00)

BlueWalker 3 - Visible Passes

Search period start: 08 December 2022 00:00
Search period end: 18 December 2022 00:00
Orbit: 501 x 518 km, 53.2° (Epoch: 08 December)

Date Brightness Start Highest point End Pass type
(mag) Time Alt. Az. Time Alt. Az. Time Alt. Az.
08 Dec 4.5 00:07:28 10° NW 00:08:29 17° NW 00:08:29 17° NW visible
08 Dec 3.4 22:10:48 10° NNW 22:13:53 21° NNE 22:16:24 12° ENE visible
08 Dec 3.5 23:49:04 10° NW 23:51:15 32° NW 23:51:15 32° NW visible
09 Dec 3.4 21:52:22 10° NNW 21:55:30 22° NNE 21:58:36 10° ENE visible
09 Dec 2.1 23:30:39 10° NW 23:34:13 72° WNW 23:34:13 72° WNW visible
10 Dec 2.0 23:12:14 10° NW 23:16:08 77° SW 23:17:27 39° SE visible
11 Dec 2.1 22:53:48 10° NW 22:57:42 72° SW 23:01:04 13° SE visible
12 Dec 2.3 22:35:23 10° NW 22:39:16 66° SW 22:43:06 10° SE visible
13 Dec 2.5 22:16:57 10° WNW 22:20:48 62° SW 22:24:38 10° SE visible
14 Dec 2.7 21:58:31 10° WNW 22:02:21 57° SW 22:06:10 10° SE visible
